SCP
1 1 1 1 1 1 1 1 1 1 1 1 1 1 1 2 2 2 2 1 1 1 1 2 2 2 2 2 2 2 2 2 2 1 1 1 1 1 1 1 1 1 1
1 1 1 1 1 1 1 1 1 1 1 1 1 1 1 2 2 2 2 1 1 1 1 2 3 3 2 2 2 2 2 2 2 2 1 1 1 1 1 1 1 1 1
1 1 1 1 1 1 1 1 1 1 1 1 1 1 1 2 2 2 1 1 1 1 1 3 3 3 3 2 2 2 2 2 2 1 1 1 1 1 1 1 1 1 1
1 1 1 1 1 1 1 1 1 1 1 1 1 1 1 2 2 1 1 1 1 1 1 2 3 3 2 2 2 2 2 1 1 1 1 1 1 1 2 1 1 1 1
1 1 1 1 1 1 1 1 1 1 1 1 1 1 1 2 2 1 1 1 1 1 1 1 2 2 2 2 2 2 2 1 1 1 1 1 1 1 1 1 1 1 1
1 1 1 1 1 1 1 1 1 1 1 1 1 1 1 2 2 2 1 1 1 1 1 1 1 1 2 2 2 2 2 1 1 1 1 1 1 1 1 1 1 1 1
1 1 1 1 1 1 1 1 1 1 1 1 1 1 1 1 1 1 1 2 2 1 1 1 1 1 1 2 2 2 1 1 1 1 1 1 1 1 1 1 1 1 1
1 0 0 1 1 1 1 1 1 1 1 1 1 1 1 1 1 1 1 2 2 2 1 1 1 1 1 2 2 2 2 1 1 1 1 1 1 1 1 1 1 1 1
1 1 0 1 1 1 1 1 1 1 1 1 1 1 1 1 1 1 1 2 2 1 1 1 1 1 1 2 2 2 2 1 1 1 1 1 1 1 1 1 1 1 1
1 1 1 0 1 1 1 1 1 1 1 1 1 1 1 1 1 1 1 1 1 1 1 1 1 1 2 2 2 2 2 1 1 1 1 1 1 1 1 1 1 1 1
1 1 1 1 1 1 1 1 1 1 1 1 1 1 1 1 1 1 1 1 1 1 1 2 2 2 2 2 2 2 1 1 1 1 1 1 1 1 1 1 1 1 0
1 1 1 1 1 1 1 0 0 0 1 1 1 1 1 2 2 1 2 2 2 2 2 3 3 2 2 2 1 1 1 1 1 0 1 1 1 1 1 1 1 1 0
1 1 1 1 1 1 1 1 1 1 1 1 1 1 2 2 2 2 2 2 3 3 3 3 3 2 2 1 1 1 1 1 1 1 1 1 1 1 1 1 1 1 1
1 2 2 1 1 1 1 1 1 1 1 1 1 1 2 2 2 3 3 3 3 3 3 3 3 2 1 1 1 1 1 1 1 1 1 1 1 1 1 1 1 1 1
2 2 2 2 2 2 1 1 2 2 1 1 1 2 2 2 3 3 3 3 3 2 2 2 2 1 1 1 1 1 1 1 1 2 1 1 1 1 1 1 1 1 1
3 3 2 2 2 2 2 1 2 1 1 1 2 2 2 3 3 3 2 2 1 1 1 1 1 1 0 0 0 1 1 1 2 1 1 1 1 1 1 1 1 1 1
3 2 2 2 3 3 2 1 2 2 1 1 1 2 2 3 3 2 1 1 1 1 1 1 0 0 0 1 1 1 2 2 2 1 1 1 1 1 2 2 1 1 1
3 2 1 2 2 2 2 2 2 2 2 2 1 1 1 2 2 2 1 1 1 1 1 1 0 0 0 1 1 1 2 2 2 1 1 1 1 1 2 2 2 1 1
3 2 2 2 2 2 2 2 2 2 1 1 1 1 1 1 1 1 1 1 1 1 1 1 0 0 0 1 1 1 2 2 2 1 1 1 1 1 1 2 2 2 1
4 3 2 2 2 2 1 1 2 2 2 1 1 1 1 1 1 1 1 1 1 1 1 1 1 1 0 0 1 1 2 2 1 1 1 1 1 1 1 1 2 2 2
4 4 3 3 2 2 1 1 1 2 2 1 1 1 1 1 1 0 1 1 1 1 1 1 1 1 1 1 1 1 2 2 1 1 2 2 2 1 1 1 2 2 2
5 5 4 3 3 2 2 1 1 1 1 1 1 1 1 1 1 1 1 1 1 1 1 1 1 2 1 1 1 1 2 2 2 2 2 2 2 2 2 2 2 3 3
5 5 5 4 3 3 2 2 1 1 1 1 1 1 1 1 1 1 1 1 1 2 2 2 2 2 2 2 2 2 2 2 2 2 2 2 2 3 2 2 3 4 4
4 4 4 5 4 3 3 2 2 1 1 1 1 1 1 1 1 2 2 2 2 2 2 2 3 3 2 2 2 2 2 2 2 2 2 2 2 2 2 2 3 4 5
3 4 4 5 5 4 4 3 3 2 2 1 1 2 2 2 2 2 2 2 3 3 3 3 3 3 3 3 2 2 2 2 2 2 2 2 2 2 2 3 4 4 4
2 3 4 4 5 4 4 4 4 3 2 2 2 2 2 2 2 3 3 3 3 3 3 3 3 3 3 3 2 2 2 3 3 2 2 2 2 2 2 3 4 4 4
Wind_Speed
10 12 13 12 11 11 10 9 9 9 10 10 10 10 10 11 10 10 10 10 11 12 13 14 14 14 14 14 14 14 14 15 15 15 16 15 15 14 13 13 13 11 13
11 12 13 12 12 12 11 11 10 11 10 10 10 10 11 10 10 10 10 10 11 12 14 15 14 14 14 14 14 14 14 14 14 15 16 15 14 13 11 11 12 9 13
12 12 12 12 12 12 11 11 11 11 10 10 10 10 10 10 10 9 10 11 12 13 15 15 15 14 14 14 13 13 13 13 13 14 14 10 11 12 12 14 14 13 13
12 12 12 13 12 12 11 11 11 11 10 10 10 10 10 10 9 9 11 12 13 14 15 15 15 14 14 13 12 12 12 12 12 12 7 8 9 13 13 13 13 13 12
12 12 12 13 12 12 11 10 10 10 10 9 9 9 9 9 10 10 11 11 13 14 15 15 15 14 13 12 12 11 10 10 10 8 7 8 8 12 13 13 13 12 11
12 13 13 13 12 11 10 10 9 9 9 8 9 9 9 10 11 11 11 11 12 13 14 15 14 14 13 12 11 10 9 8 7 6 7 9 8 12 13 13 12 11 11
12 12 12 13 12 11 10 9 9 8 8 8 8 9 9 10 11 11 11 12 12 13 14 14 14 13 11 10 9 8 7 6 5 5 7 8 9 13 13 13 12 11 10
12 13 11 12 11 10 10 9 9 8 8 8 10 10 10 11 11 11 11 11 12 12 13 13 13 12 10 8 7 6 5 5 5 8 8 8 12 13 13 12 11 10 10
12 11 9 9 9 10 10 9 9 8 8 9 10 10 10 11 11 11 11 11 11 11 12 12 12 11 10 8 6 5 5 4 3 5 9 8 13 14 14 13 11 10 10
10 9 8 8 7 6 6 8 9 8 7 9 9 9 10 10 11 11 10 10 11 10 10 11 11 10 9 7 6 5 5 3 3 6 6 9 14 14 14 13 11 11 10
8 7 7 8 6 5 6 7 6 7 6 7 7 8 7 6 7 7 10 10 10 9 9 10 10 10 8 7 7 5 3 2 4 6 6 13 15 14 13 12 11 10 9
7 7 6 7 6 4 5 5 3 4 4 3 3 4 3 4 5 7 10 11 10 9 9 9 10 9 6 4 6 6 2 3 3 5 8 16 14 14 13 11 10 10 9
6 6 8 7 4 5 4 3 2 2 2 3 4 4 3 3 4 5 4 6 6 7 5 6 5 3 3 3 3 3 3 2 3 5 9 15 14 13 12 11 10 9 8
6 6 8 8 5 4 4 3 2 1 2 2 3 4 4 3 3 4 3 4 3 3 3 3 2 3 2 3 2 2 2 3 4 5 8 14 13 12 11 10 9 9 8
6 7 7 8 6 5 4 2 2 2 2 3 3 3 5 3 4 4 3 3 3 3 3 2 2 3 3 2 2 3 3 3 5 6 6 13 13 11 11 10 9 9 8
7 7 7 8 7 5 3 1 1 2 2 3 4 4 4 3 4 4 4 3 3 3 3 2 3 3 2 2 2 3 3 3 4 5 6 8 11 11 10 10 9 9 8
7 7 6 8 7 5 4 2 2 2 3 3 4 4 3 3 4 3 3 3 3 3 3 2 2 2 2 3 2 2 2 2 3 4 5 5 6 9 10 9 9 8 8
7 6 4 6 7 4 3 2 2 2 3 3 4 4 3 3 4 3 3 3 3 3 3 3 2 2 2 2 2 2 2 2 3 3 4 5 5 6 8 10 9 9 9
7 6 4 5 6 5 4 2 2 2 3 2 3 3 4 3 3 2 2 3 3 2 2 3 3 2 2 2 2 2 2 2 3 4 4 5 5 5 5 8 10 9 9
8 6 5 4 5 5 4 2 2 2 2 2 3 3 4 3 3 2 3 4 3 2 2 2 3 2 1 1 2 2 2 2 2 2 3 3 4 5 6 7 6 6 9
9 7 6 5 5 3 3 3 2 2 2 2 3 4 4 3 3 2 2 3 2 2 2 3 3 3 2 2 2 2 1 1 2 2 2 2 3 3 4 5 5 5 5
10 8 7 6 6 4 3 2 2 3 2 3 2 4 4 3 3 3 2 2 3 3 3 3 2 2 1 2 2 2 1 1 1 2 2 3 3 3 3 5 4 4 4
11 10 8 7 6 5 4 3 3 2 1 2 3 3 3 3 3 1 3 2 2 2 3 3 3 3 2 2 1 1 1 1 1 1 2 2 2 3 3 3 5 5 5
11 11 9 8 6 5 5 4 4 4 3 3 3 3 3 3 3 3 2 2 1 1 2 3 3 2 2 2 1 1 1 1 1 1 1 2 3 3 3 3 4 4 4
12 11 9 8 7 6 5 4 3 3 3 3 3 3 3 3 3 3 3 3 2 1 2 2 2 2 1 1 1 1 1 1 1 2 2 2 2 2 3 3 2 2 4
11 11 11 9 7 6 5 4 4 4 3 3 3 4 3 3 3 3 3 3 3 2 2 2 2 2 2 1 1 1 1 1 2 2 2 2 2 3 3 2 3 3 3
Wind_Direction
87 94 93 89 86 85 86 86 86 91 97 100 99 100 102 102 104 109 114 115 121 128 131 127 129 128 126 124 122 120 117 115 115 115 115 115 114 115 117 119 115 106 107
97 97 92 89 88 87 87 88 88 91 95 98 98 99 100 100 104 109 116 119 124 130 132 130 129 130 129 127 127 125 123 124 125 126 123 119 117 116 116 113 106 113 113
97 101 95 91 93 91 90 90 90 91 92 95 97 100 102 102 104 108 116 119 125 130 133 133 132 132 131 131 131 131 131 133 137 139 135 125 121 117 113 110 112 116 114
100 101 97 98 96 95 93 93 92 92 93 93 96 100 103 104 104 108 116 118 124 129 131 133 133 133 135 136 136 138 140 145 151 154 142 130 127 122 120 119 120 120 120
99 101 105 103 100 99 97 97 95 93 92 93 97 97 98 101 105 109 119 121 125 129 132 134 134 137 140 141 141 145 150 155 162 164 126 117 116 130 127 127 128 127 127
110 105 110 109 105 103 104 102 101 97 95 95 99 96 96 102 107 109 118 123 127 129 131 134 135 139 141 142 146 151 158 170 175 150 126 121 124 135 134 132 131 131 131
108 105 109 114 112 110 112 109 108 105 103 106 107 103 101 108 110 110 112 120 124 128 131 134 137 140 142 143 148 156 170 185 187 139 126 121 131 139 138 135 134 134 134
102 105 108 118 116 116 119 117 113 109 105 111 112 107 106 111 112 112 117 121 123 128 133 136 139 141 143 146 151 163 180 194 166 137 124 123 139 142 140 139 138 138 139
99 106 113 112 116 118 118 121 116 111 110 112 115 114 113 116 115 115 120 122 123 127 134 138 142 145 148 151 158 174 195 208 189 136 129 128 143 144 142 143 145 142 141
101 107 115 115 115 116 118 126 122 116 114 118 117 119 119 121 122 125 127 126 124 128 136 141 146 150 151 158 168 186 199 216 182 126 119 134 144 145 147 148 149 149 149
101 108 114 113 113 114 117 117 123 125 121 127 129 132 133 127 128 132 127 131 127 128 136 145 149 150 153 165 178 190 198 200 130 112 116 138 144 145 149 150 150 152 152
104 110 104 99 108 110 107 112 116 124 124 130 120 130 130 119 117 120 130 137 136 132 135 146 150 152 162 164 177 191 203 164 121 114 126 141 143 146 149 154 158 159 158
114 109 108 103 99 93 94 112 91 95 118 129 127 129 125 119 123 121 126 132 139 144 144 138 151 162 158 150 157 172 181 131 123 119 136 143 145 150 154 159 162 163 164
120 114 113 113 101 89 92 92 110 115 120 132 140 145 132 126 119 121 123 132 137 139 131 126 132 133 139 138 140 143 126 116 114 114 139 147 149 155 159 161 165 168 171
115 109 106 111 103 89 83 84 103 106 124 134 121 128 125 124 118 118 117 123 130 121 122 122 121 119 111 111 115 122 103 112 115 119 136 151 152 156 161 166 174 178 179
114 111 108 110 108 107 108 90 83 117 110 119 115 119 123 121 117 119 125 124 123 123 128 126 125 114 106 91 85 91 92 89 106 122 136 151 157 161 166 174 180 184 185
116 113 117 122 119 124 129 141 130 113 119 106 104 106 109 113 119 125 128 132 127 123 123 124 120 118 126 122 117 114 105 109 122 128 143 152 162 170 177 182 183 185 187
122 118 130 130 126 128 121 117 112 100 98 104 118 117 119 116 127 128 131 133 125 130 129 133 145 134 118 119 127 141 136 148 151 155 159 160 166 169 181 186 184 186 188
127 128 127 116 128 136 133 138 126 104 96 108 115 122 131 134 138 143 121 113 136 141 144 154 129 124 115 124 149 164 169 166 161 175 165 169 166 160 165 178 183 185 189
139 139 135 129 128 138 140 136 129 120 128 128 121 126 131 146 141 140 133 141 160 141 132 119 119 129 121 169 180 132 150 163 166 174 170 166 162 167 167 171 179 191 196
146 147 147 146 137 147 145 150 143 144 154 139 139 133 136 148 137 152 131 139 160 135 145 147 143 146 163 167 134 112 139 190 167 155 165 160 162 168 171 170 177 182 189
151 152 153 149 152 164 154 157 161 156 165 150 131 133 148 150 149 158 150 162 162 147 160 163 154 146 188 187 167 144 148 150 190 178 170 180 182 179 181 182 177 183 181
155 158 165 161 161 170 153 158 156 138 165 136 138 144 157 154 155 162 149 167 153 168 167 172 181 182 190 226 212 176 170 171 164 193 190 177 178 181 187 183 187 183 182
160 161 161 157 161 165 162 173 169 158 163 167 159 151 160 162 162 164 161 161 168 185 157 185 177 197 190 222 225 204 182 148 158 162 202 180 194 204 202 205 191 180 178
165 163 161 157 163 165 173 173 172 167 167 169 158 148 158 171 179 173 165 165 176 190 183 183 137 186 217 238 248 211 181 193 193 171 192 197 211 212 204 209 186 186 190
167 164 162 160 165 168 177 178 177 179 175 163 158 157 173 174 178 188 179 172 180 191 194 186 184 201 215 251 281 282 231 216 208 192 194 202 212 220 206 208 190 181 197